Location: Bacea
(45.9500°N, 22.6667°E)
Time: 16:49:20
(UTC+00:00)

Cosmos 489 Rocket - Pass Details

Date: 27 May 2022
Orbit: 952 x 983 km, 74.0° (Epoch: 29 June)

Event Time Altitude Azimuth Distance (km) Brightness Sun altitude
Rises 00:21:02 0° 345° (NNW) 3,643 8.2 -17.9°
Reaches altitude 10° 00:24:22 10° 3° (N) 2,697 7.8 -17.7°
Maximum altitude 00:28:45 20° 48° (NE) 2,091 7.2 -17.3°
Drops below altitude 10° 00:33:08 10° 93° (E) 2,700 7.2 -16.9°
Sets 00:36:28 0° 110° (ESE) 3,649 7.6 -16.6°
